Location: A O Calhoun Middle School
(33.2198°N, 97.1397°W)
Time: 12:26:45
(UTC+00:00)

SPOT 1 Rocket Y - Visible Passes

Search period start: 26 September 2022 00:00
Search period end: 06 October 2022 00:00
Orbit: 785 x 831 km, 98.5° (Epoch: 25 September)

Date Brightness Start Highest point End Pass type
(mag) Time Alt. Az. Time Alt. Az. Time Alt. Az.
26 Sep 7.3 02:28:13 22° NNE 02:28:13 22° NNE 02:30:22 10° N visible
26 Sep 8.5 04:09:20 12° NW 04:09:20 12° NW 04:09:49 10° NW visible
27 Sep 7.5 02:03:51 16° NE 02:03:51 16° NE 02:05:24 10° NNE visible
27 Sep 8.1 03:44:58 17° NNW 03:44:58 17° NNW 03:46:13 10° NNW visible
28 Sep 7.7 03:20:36 20° NNW 03:20:36 20° NNW 03:22:14 10° NNW visible
29 Sep 7.5 02:56:15 21° N 02:56:15 21° N 02:57:59 10° N visible
30 Sep 7.5 02:31:53 18° NNE 02:31:53 18° NNE 02:33:27 10° N visible
01 Oct 7.7 02:07:31 14° NNE 02:07:31 14° NNE 02:08:33 10° NNE visible
01 Oct 8.4 03:48:39 13° NNW 03:48:39 13° NNW 03:49:10 10° NNW visible
02 Oct 8.1 03:24:17 16° NNW 03:24:17 16° NNW 03:25:14 10° NNW visible
03 Oct 7.9 02:59:55 16° N 02:59:55 16° N 03:01:01 10° N visible
04 Oct 7.8 02:35:33 15° N 02:35:33 15° N 02:36:31 10° N visible
05 Oct 7.9 02:11:11 12° NNE 02:11:11 12° NNE 02:11:41 10° NNE visible
